This is the latest recevied weather packets stored in our database for station/object K3BAY-1. If no packets are shown the sender has not sent any weather packets the latest 10 day(s).
| Time | Temp. | Humidity | Pressure | Rain* | Wind** | Luminosity | Snow |
|---|---|---|---|---|---|---|---|
| 1777847299 | 18.33° C | 30% | 1013.6 hPa | 0 mm | - | 113 W/m² | - |
| 1777846997 | 17.78° C | 30% | 1013.6 hPa | 0 mm | - | 104 W/m² | - |
| 1777846695 | 18.33° C | 31% | 1013.6 hPa | 0 mm | - | 144 W/m² | - |
| 1777846394 | 18.33° C | 33% | 1013.6 hPa | 0 mm | - | 161 W/m² | - |
| 1777846089 | 17.78° C | 32% | 1013.9 hPa | 0 mm | - | 177 W/m² | - |
| 1777845786 | 18.89° C | 30% | 1013.6 hPa | 0 mm | - | 188 W/m² | - |
| 1777845483 | 18.33° C | 30% | 1013.6 hPa | 0 mm | - | 215 W/m² | - |
| 1777845180 | 18.33° C | 30% | 1013.9 hPa | 0 mm | - | 227 W/m² | - |
| 1777844878 | 18.33° C | 32% | 1013.9 hPa | 0 mm | - | 232 W/m² | - |
| 1777844575 | 18.33° C | 33% | 1013.9 hPa | 0 mm | - | 254 W/m² | - |
| 1777844272 | 17.78° C | 33% | 1013.9 hPa | 0 mm | - | 278 W/m² | - |
| 1777843970 | 18.89° C | 34% | 1014.2 hPa | 0 mm | - | 274 W/m² | - |
| 1777843666 | 17.78° C | 32% | 1013.6 hPa | 0 mm | - | 298 W/m² | - |
| 1777843364 | 19.44° C | 33% | 1013.9 hPa | 0 mm | - | 315 W/m² | - |
| 1777843061 | 18.89° C | 30% | 1013.9 hPa | 0 mm | - | 352 W/m² | - |
| 1777842758 | 18.33° C | 31% | 1013.9 hPa | 0 mm | - | 371 W/m² | - |
| 1777842453 | 18.33° C | 31% | 1013.9 hPa | 0 mm | - | 386 W/m² | - |
| 1777842151 | 18.89° C | 31% | 1014.2 hPa | 0 mm | - | 407 W/m² | - |
| 1777841846 | 18.89° C | 32% | 1014.2 hPa | 0 mm | - | 440 W/m² | - |
| 1777841542 | 17.78° C | 33% | 1014.2 hPa | 0 mm | - | 449 W/m² | - |
| 1777841239 | 17.78° C | 34% | 1014.2 hPa | 0 mm | - | 470 W/m² | - |
| 1777840937 | 17.22° C | 32% | 1014.6 hPa | 0 mm | - | 478 W/m² | - |
| 1777840634 | 17.78° C | 31% | 1014.2 hPa | 0 mm | - | 460 W/m² | - |
| 1777840331 | 17.78° C | 31% | 1014.6 hPa | 0 mm | - | 486 W/m² | - |
| 1777840028 | 18.33° C | 31% | 1014.6 hPa | 0 mm | - | 497 W/m² | - |
* Rain latest hour (hover to see other rain measurements)
** Current wind speed in m/s (hover to see current wind gust speed)